Time,TemperatureF,DewpointF,PressureIn,WindDirection,WindDirectionDegrees,WindSpeedMPH,WindSpeedGustMPH,Humidity,HourlyPrecipIn,Conditions,Clouds,dailyrainin,SoftwareType,DateUTC
2013-07-07 00:00:00,71.0,66.9,29.66,SSW,202,0.0,0.0,87,0.00,,,0.00,Weather View 32 v70,2013-07-07 07:00:00,
2013-07-07 00:30:00,71.0,67.9,29.67,WSW,247,0.0,2.0,90,0.00,,,0.00,Weather View 32 v70,2013-07-07 07:30:00,
2013-07-07 01:00:00,69.0,65.9,29.67,ESE,112,0.0,4.0,90,0.00,,,0.00,Weather View 32 v70,2013-07-07 08:00:00,
2013-07-07 01:30:00,68.0,65.3,29.67,SSE,157,0.0,4.0,91,0.00,,,0.00,Weather View 32 v70,2013-07-07 08:30:00,
2013-07-07 02:00:00,67.0,62.0,29.67,SSE,157,0.0,0.0,84,0.00,,,0.00,Weather View 32 v70,2013-07-07 09:00:00,
2013-07-07 02:30:00,67.0,59.5,29.66,WNW,292,0.0,3.0,77,0.00,,,0.00,Weather View 32 v70,2013-07-07 09:30:00,
2013-07-07 03:00:00,67.0,54.4,29.66,East,90,0.0,3.0,64,0.00,,,0.00,Weather View 32 v70,2013-07-07 10:00:00,
2013-07-07 03:30:00,65.0,52.5,29.65,East,90,0.0,0.0,64,0.00,,,0.00,Weather View 32 v70,2013-07-07 10:30:00,
2013-07-07 04:00:00,63.0,45.6,29.65,East,90,0.0,0.0,53,0.00,,,0.00,Weather View 32 v70,2013-07-07 11:00:00,
2013-07-07 04:30:00,63.0,36.9,29.65,SSE,157,0.0,2.0,38,0.00,,,0.00,Weather View 32 v70,2013-07-07 11:30:00,
2013-07-07 05:00:00,62.0,54.7,29.65,SSE,157,0.0,2.0,77,0.00,,,0.00,Weather View 32 v70,2013-07-07 12:00:00,
2013-07-07 05:30:00,62.0,55.7,29.65,SW,225,0.0,4.0,80,0.00,,,0.00,Weather View 32 v70,2013-07-07 12:30:00,
2013-07-07 05:35:00,62.0,55.7,29.65,SW,225,0.0,4.0,80,0.00,,,0.00,Weather View 32 v70,2013-07-07 12:35:00,
2013-07-07 06:00:00,61.0,53.0,29.67,SW,225,0.0,4.0,75,0.00,,,0.00,Weather View 32 v70,2013-07-07 13:00:00,
2013-07-07 06:30:00,64.0,61.9,29.68,SE,135,0.0,2.0,93,0.00,,,0.00,Weather View 32 v70,2013-07-07 13:30:00,
2013-07-07 06:35:00,64.0,61.9,29.68,SE,135,0.0,2.0,93,0.00,,,0.00,Weather View 32 v70,2013-07-07 13:35:00,
2013-07-07 07:00:00,68.0,63.6,29.71,SE,135,0.0,2.0,86,0.00,,,0.00,Weather View 32 v70,2013-07-07 14:00:00,
2013-07-07 07:30:00,71.0,64.1,29.74,SSE,157,0.0,0.0,79,0.00,,,0.00,Weather View 32 v70,2013-07-07 14:30:00,
2013-07-07 07:36:00,71.0,64.1,29.74,SSE,157,0.0,0.0,79,0.00,,,0.00,Weather View 32 v70,2013-07-07 14:36:00,
2013-07-07 08:00:00,73.0,63.8,29.76,SE,135,3.0,4.0,73,0.00,,,0.00,Weather View 32 v70,2013-07-07 15:00:00,
2013-07-07 08:30:00,77.0,62.0,29.78,South,180,0.0,7.0,60,0.00,,,0.00,Weather View 32 v70,2013-07-07 15:30:00,
2013-07-07 08:36:00,77.0,62.0,29.78,South,180,0.0,7.0,60,0.00,,,0.00,Weather View 32 v70,2013-07-07 15:36:00,
2013-07-07 09:00:00,78.0,62.0,29.79,SSW,202,0.0,9.0,58,0.00,,,0.00,Weather View 32 v70,2013-07-07 16:00:00,
2013-07-07 09:30:00,81.0,63.8,29.81,SSE,157,3.0,9.0,56,0.00,,,0.00,Weather View 32 v70,2013-07-07 16:30:00,
2013-07-07 09:37:00,81.0,63.8,29.81,SSE,157,3.0,9.0,56,0.00,,,0.00,Weather View 32 v70,2013-07-07 16:37:00,
2013-07-07 10:00:00,83.0,62.9,29.81,SSW,202,0.0,9.0,51,0.00,,,0.00,Weather View 32 v70,2013-07-07 17:00:00,
2013-07-07 10:30:00,88.0,59.8,29.83,SSW,202,4.0,9.0,39,0.00,,,0.00,Weather View 32 v70,2013-07-07 17:30:00,
2013-07-07 10:38:00,88.0,59.8,29.83,SSW,202,4.0,9.0,39,0.00,,,0.00,Weather View 32 v70,2013-07-07 17:38:00,
2013-07-07 11:00:00,88.0,59.1,29.84,ENE,67,0.0,9.0,38,0.00,,,0.00,Weather View 32 v70,2013-07-07 18:00:00,
2013-07-07 11:30:00,90.0,56.1,29.84,SE,135,0.0,7.0,32,0.00,,,0.00,Weather View 32 v70,2013-07-07 18:30:00,
2013-07-07 11:38:00,90.0,56.1,29.84,SE,135,0.0,7.0,32,0.00,,,0.00,Weather View 32 v70,2013-07-07 18:38:00,
2013-07-07 12:00:00,93.0,60.4,29.84,WSW,247,0.0,7.0,34,0.00,,,0.00,Weather View 32 v70,2013-07-07 19:00:00,
2013-07-07 12:30:00,93.0,59.5,29.84,NNW,337,0.0,7.0,33,0.00,,,0.00,Weather View 32 v70,2013-07-07 19:30:00,
2013-07-07 12:39:00,93.0,59.5,29.84,NNW,337,0.0,7.0,33,0.00,,,0.00,Weather View 32 v70,2013-07-07 19:39:00,
2013-07-07 13:00:00,94.0,57.7,29.83,WSW,247,0.0,7.0,30,0.00,,,0.00,Weather View 32 v70,2013-07-07 20:00:00,
2013-07-07 13:30:00,96.0,59.4,29.83,SSW,202,0.0,7.0,30,0.00,,,0.00,Weather View 32 v70,2013-07-07 20:30:00,
2013-07-07 13:39:00,96.0,59.4,29.83,SSW,202,0.0,7.0,30,0.00,,,0.00,Weather View 32 v70,2013-07-07 20:39:00,
2013-07-07 14:00:00,98.0,58.2,29.83,NW,315,0.0,6.0,27,0.00,,,0.00,Weather View 32 v70,2013-07-07 21:00:00,
2013-07-07 14:30:00,98.0,60.2,29.82,WSW,247,0.0,0.0,29,0.00,,,0.00,Weather View 32 v70,2013-07-07 21:30:00,
2013-07-07 15:00:00,99.0,58.0,29.83,West,270,0.0,0.0,26,0.00,,,0.00,Weather View 32 v70,2013-07-07 22:00:00,
2013-07-07 15:30:00,100.0,56.6,29.82,WSW,247,0.0,0.0,24,0.00,,,0.00,Weather View 32 v70,2013-07-07 22:30:00,
2013-07-07 16:00:00,100.0,55.4,29.82,West,270,0.0,0.0,23,0.00,,,0.00,Weather View 32 v70,2013-07-07 23:00:00,
2013-07-07 16:30:00,100.0,55.4,29.81,West,270,0.0,0.0,23,0.00,,,0.00,Weather View 32 v70,2013-07-07 23:30:00,
2013-07-07 17:00:00,101.0,52.4,29.81,West,270,4.0,7.0,20,0.00,,,0.00,Weather View 32 v70,2013-07-08 00:00:00,
2013-07-07 17:30:00,102.0,54.5,29.79,WNW,292,0.0,7.0,21,0.00,,,0.00,Weather View 32 v70,2013-07-08 00:30:00,
2013-07-07 18:00:00,101.0,56.2,29.79,WNW,292,3.0,6.0,23,0.00,,,0.00,Weather View 32 v70,2013-07-08 01:00:00,
2013-07-07 18:30:00,100.0,58.8,29.79,West,270,0.0,6.0,26,0.00,,,0.00,Weather View 32 v70,2013-07-08 01:30:00,
2013-07-07 19:00:00,101.0,63.7,29.79,West,270,0.0,6.0,30,0.00,,,0.00,Weather View 32 v70,2013-07-08 02:00:00,
2013-07-07 19:30:00,98.0,66.4,29.78,West,270,0.0,0.0,36,0.00,,,0.00,Weather View 32 v70,2013-07-08 02:30:00,
2013-07-07 20:00:00,93.0,63.5,29.77,West,270,0.0,0.0,38,0.00,,,0.00,Weather View 32 v70,2013-07-08 03:00:00,
2013-07-07 20:30:00,87.0,62.4,29.75,West,270,0.0,0.0,44,0.00,,,0.00,Weather View 32 v70,2013-07-08 03:30:00,
2013-07-07 21:00:00,82.0,58.5,29.73,WSW,247,0.0,0.0,45,0.00,,,0.00,Weather View 32 v70,2013-07-08 04:00:00,
2013-07-07 21:30:00,80.0,63.3,29.74,SW,225,0.0,6.0,57,0.00,,,0.00,Weather View 32 v70,2013-07-08 04:30:00,
2013-07-07 22:00:00,79.0,61.4,29.74,SW,225,0.0,7.0,55,0.00,,,0.00,Weather View 32 v70,2013-07-08 05:00:00,
2013-07-07 22:30:00,81.0,54.3,29.75,WSW,247,4.0,8.0,40,0.00,,,0.00,Weather View 32 v70,2013-07-08 05:30:00,
2013-07-07 23:00:00,81.0,52.9,29.75,SW,225,6.0,9.0,38,0.00,,,0.00,Weather View 32 v70,2013-07-08 06:00:00,
2013-07-07 23:30:00,78.0,53.0,29.76,West,270,3.0,9.0,42,0.00,,,0.00,Weather View 32 v70,2013-07-08 06:30:00,